Home > Weather > Holguín > Past weeks

Flag for Cuba Past Weather in Holguín, Cuba — Yesterday and Last 2 Weeks

Now
77 °F

Fog.


Feels Like: 78 °F
Forecast: 75 / 91 °F
Wind: 5 mph from Southeast

Location: Holguin Civ / Mil

Current Time: Jul 28, 2016 at 4:50:19 AM

Latest Report: Jul 28, 2016 at 3:51 AM


Visibility: 4 mi

Pressure: 29.95 "Hg

Humidity: 89%

Dew Point: 73 °F

Location of HolguínLocation

Past Weather in Holguín — Graph

°F

Holguín Temperature Yesterday

Maximum temperature yesterday: 90 °F (at 1:50 PM)
Minimum temperature yesterday: 73 °F (at 4:51 AM)
Average temperature yesterday: 82 °F

High & Low Weather Summary for the Past Weeks

 TemperatureHumidityPressure
High95 °F (Jul 20, 2:50 PM)94% (Jul 16, 6:50 AM)30.09 "Hg (Jul 16, 6:50 AM)
Low72 °F (Jul 19, 2:51 AM)34% (Jul 24, 12:50 PM)29.95 "Hg (Jul 15, 4:50 PM)
Average82 °F69%30.01 "Hg
* Reported Jul 13 2:50 AM — Jul 28 2:51 AM, Holguín, Weather by CustomWeather, © 2016

Note: Actual official high and low records may vary slightly from our data, if they occured in-between our weather recording intervals... More about our weather records

Advertising

Holguín Weather History for the Previous 24 Hours

Scroll right to see more
 ConditionsComfort  
Time TempWeatherWind HumidityBarometerVisibility
2:51 AM
Thu, Jul 28
77 °FFog.5 mph89%29.95 "Hg5 mi
1:51 AM79 °FClear.2 mph84%29.95 "Hg10 mi
12:50 AM79 °FClear.6 mph84%29.98 "Hg10 mi
11:50 PM
Wed, Jul 27
81 °FClear.7 mph84%30.01 "Hg10 mi
10:50 PM81 °FClear.8 mph74%30.01 "Hg10 mi
9:50 PM81 °FClear.9 mph79%30.01 "Hg10 mi
8:50 PM81 °FClear.6 mph74%29.98 "Hg10 mi
7:50 PM82 °FPassing clouds.7 mph66%29.98 "HgN/A
6:50 PM84 °FPassing clouds.7 mph58%29.95 "Hg6 mi
5:50 PM88 °FScattered clouds.9 mph46%29.95 "Hg6 mi
4:51 PM88 °FPartly sunny.10 mph59%29.95 "Hg6 mi
3:54 PM82 °FPartly sunny.No wind79%29.98 "Hg5 mi
2:50 PM86 °FBroken clouds.16 mph66%29.95 "Hg6 mi
1:50 PM90 °FBroken clouds.16 mph52%29.98 "Hg6 mi
12:51 PM88 °FPartly sunny.15 mph59%30.01 "Hg6 mi
11:51 AM86 °FPartly sunny.13 mph62%30.01 "Hg6 mi
10:50 AM88 °FPartly sunny.14 mph59%30.01 "HgN/A
9:50 AM86 °FPartly sunny.12 mph62%30.01 "Hg6 mi
8:50 AM82 °FScattered clouds.10 mph74%30.01 "Hg6 mi
7:56 AM81 °FPassing clouds.6 mph79%30.01 "Hg6 mi
6:52 AM77 °FPassing clouds.5 mph74%30.01 "Hg6 mi
5:50 AM73 °FFog.2 mph89%29.98 "Hg4 mi
4:51 AM73 °FFog.2 mph94%29.95 "Hg5 mi
Weather by CustomWeather, © 2016

See weather overviewHow to use our weather pages